KJ4AJP Weather Reports


Display with metric or nautical units.
time (UTC)temp
F
wind
direction
speed
MPH
gust
MPH
rain 1hr
in
rain 24hr
in
rain mn
in
humidity
%
barometer
mb
20210613084347 75 24 0.0 0.0 0.00 0.00 0.00 98 1012.5
20210613083843 75 24 0.0 0.0 0.00 0.00 0.00 98 1012.5
20210613083339 75 24 0.0 0.0 0.00 0.00 0.00 98 1012.5
20210613082836 75 24 0.0 0.0 0.00 0.00 0.00 98 1012.3
20210613082336 75 24 0.0 0.0 0.00 0.00 0.00 98 1012.3
20210613081833 75 24 0.0 0.0 0.00 0.00 0.00 98 1012.4
20210613081329 76 24 0.0 0.0 0.00 0.00 0.00 97 1012.3
20210613080826 76 24 0.0 0.0 0.00 0.00 0.00 97 1012.0
20210613080324 76 24 0.0 0.0 0.00 0.00 0.00 96 1011.8
20210613075816 76 24 0.0 0.0 0.00 0.00 0.00 96 1011.6
20210613075310 76 24 0.0 0.0 0.00 0.00 0.00 95 1011.6
20210613074809 77 24 0.0 0.0 0.00 0.00 0.00 94 1011.5
20210613074307 76 23 0.0 0.0 0.00 0.00 0.00 95 1011.5
20210613073801 76 23 0.0 0.0 0.00 0.00 0.00 95 1011.5
20210613073252 76 23 0.0 0.0 0.00 0.00 0.00 96 1011.6
20210613072746 76 24 0.0 0.0 0.00 0.00 0.00 96 1011.7
20210613072246 76 24 0.0 0.0 0.00 0.00 0.00 96 1011.9
20210613071743 76 24 0.0 0.0 0.00 0.00 0.00 95 1011.7
20210613071240 77 24 0.0 0.0 0.00 0.00 0.00 94 1011.8
20210613070724 77 23 0.0 0.0 0.00 0.00 0.00 94 1011.5
20210613070219 77 23 1.0 1.0 0.00 0.00 0.00 94 1011.6
20210613065716 76 23 0.0 0.0 0.00 0.00 0.00 96 1011.9
20210613065212 76 23 1.0 1.0 0.00 0.00 0.00 97 1012.2
20210613064710 76 24 0.0 0.0 0.00 0.00 0.00 97 1012.3
20210613064205 76 24 0.0 0.0 0.00 0.00 0.00 97 1012.3
20210613063702 76 24 0.0 0.0 0.00 0.00 0.00 96 1012.3
20210613063155 76 24 0.0 0.0 0.00 0.00 0.00 96 1012.5
20210613062655 76 24 0.0 0.0 0.00 0.00 0.00 96 1012.6
20210613062151 76 24 0.0 0.0 0.00 0.00 0.00 95 1012.9
20210613061645 77 24 0.0 0.0 0.00 0.00 0.00 95 1012.8
20210613061142 76 24 1.0 1.0 0.00 0.00 0.00 95 1012.9
20210613060638 76 24 0.0 0.0 0.00 0.00 0.00 96 1013.0
20210613060133 76 24 0.0 0.0 0.00 0.00 0.00 96 1013.0
20210613055632 76 24 0.0 0.0 0.00 0.00 0.00 95 1012.9
20210613055127 76 24 0.0 0.0 0.00 0.00 0.00 95 1013.0
20210613054622 76 24 0.0 0.0 0.00 0.00 0.00 95 1012.8
20210613054121 76 24 0.0 0.0 0.00 0.00 0.00 95 1012.5
20210613053613 76 24 0.0 0.0 0.00 0.00 0.00 95 1012.7
20210613052954 77 24 0.0 0.0 0.00 0.00 0.00 94 1012.6
20210613052449 77 24 0.0 0.0 0.00 0.00 0.00 94 1012.8
20210613051944 77 24 0.0 0.0 0.00 0.00 0.00 94 1012.7
20210613051440 77 24 0.0 0.0 0.00 0.00 0.00 94 1012.9
20210613050934 77 24 0.0 0.0 0.00 0.00 0.00 94 1012.8
20210613050431 77 24 0.0 0.0 0.00 0.00 0.00 94 1012.5
20210613045926 77 24 0.0 0.0 0.00 0.00 0.00 94 1013.0
20210613045418 77 24 0.0 0.0 0.00 0.00 0.00 94 1012.9
20210613044918 77 24 0.0 0.0 0.00 0.00 0.00 94 1013.1
20210613044400 77 24 0.0 0.0 0.00 0.00 0.00 93 1013.0
20210613043857 78 24 0.0 0.0 0.00 0.00 0.00 93 1013.1
20210613043353 78 24 0.0 0.0 0.00 0.00 0.00 92 1013.2
20210613042848 78 24 0.0 0.0 0.00 0.00 0.00 92 1013.1
20210613042348 78 23 0.0 0.0 0.00 0.00 0.00 92 1013.3
20210613041843 78 24 0.0 0.0 0.00 0.00 0.00 92 1013.3
20210613041338 78 24 0.0 0.0 0.00 0.00 0.00 91 1013.1
20210613040834 78 24 0.0 0.0 0.00 0.00 0.00 91 1013.3
20210613040332 78 24 0.0 0.0 0.00 0.00 0.00 91 1013.1
20210613035827 79 24 0.0 0.0 0.00 0.00 0.00 92 1013.1
20210613035323 79 24 0.0 0.0 0.00 0.00 0.00 89 1013.2
20210613034823 79 24 0.0 0.0 0.00 0.00 0.00 88 1013.5
20210613034320 79 24 0.0 0.0 0.00 0.00 0.00 87 1013.5
20210613033816 79 24 0.0 0.0 0.00 0.00 0.00 88 1013.2
20210613033312 79 24 0.0 0.0 0.00 0.00 0.00 87 1013.3
20210613032812 79 24 0.0 0.0 0.00 0.00 0.00 87 1013.3
20210613032306 80 24 0.0 0.0 0.00 0.00 0.00 86 1013.2
20210613031801 80 24 0.0 0.0 0.00 0.00 0.00 85 1013.3
20210613031255 80 24 0.0 0.0 0.00 0.00 0.00 85 1013.2
20210613030750 80 24 0.0 0.0 0.00 0.00 0.00 83 1013.1
20210613030248 80 24 0.0 0.0 0.00 0.00 0.00 83 1013.2
20210613025738 81 24 0.0 0.0 0.00 0.00 0.00 83 1013.1
20210613025236 81 24 0.0 0.0 0.00 0.00 0.00 82 1012.9
20210613024731 81 24 0.0 0.0 0.00 0.00 0.00 81 1013.1
20210613024227 81 24 0.0 0.0 0.00 0.00 0.00 80 1012.9
20210613023721 81 24 0.0 0.0 0.00 0.00 0.00 80 1013.0
20210613023212 81 24 0.0 0.0 0.00 0.00 0.00 79 1012.8
20210613022712 81 24 0.0 0.0 0.00 0.00 0.00 80 1012.9
20210613022203 81 24 0.0 0.0 0.00 0.00 0.00 84 1012.7
20210613021700 81 24 0.0 0.0 0.00 0.00 0.00 82 1012.7
20210613021157 81 24 0.0 0.0 0.00 0.00 0.00 86 1012.4
20210613020650 81 24 0.0 0.0 0.00 0.00 0.00 85 1012.3
20210613020147 81 24 0.0 0.0 0.00 0.00 0.00 85 1012.0
20210613015644 81 24 0.0 0.0 0.00 0.00 0.00 84 1011.8
20210613015140 81 24 0.0 0.0 0.00 0.00 0.00 81 1011.7
20210613014636 81 24 0.0 0.0 0.00 0.00 0.00 80 1011.6
20210613014126 81 24 0.0 0.0 0.00 0.00 0.00 78 1011.7
20210613013626 81 24 0.0 0.0 0.00 0.00 0.00 77 1011.5
20210613013119 82 24 0.0 0.0 0.00 0.00 0.00 77 1011.6
20210613012615 82 24 0.0 0.0 0.00 0.00 0.00 75 1011.4
20210613012111 82 24 0.0 0.0 0.00 0.00 0.00 75 1011.3
20210613011603 82 24 0.0 0.0 0.00 0.00 0.00 77 1011.1
20210613011055 83 24 0.0 0.0 0.00 0.00 0.00 76 1011.3
20210613010550 84 24 0.0 0.0 0.00 0.00 0.00 75 1011.0
20210613010047 84 24 0.0 0.0 0.00 0.00 0.00 73 1010.8
20210613005547 84 24 0.0 0.0 0.00 0.00 0.00 71 1010.7
20210613005040 85 24 0.0 0.0 0.00 0.00 0.00 70 1010.8
20210613004535 85 24 0.0 0.0 0.00 0.00 0.00 71 1010.7
20210613004033 86 24 0.0 0.0 0.00 0.00 0.00 72 1010.8
20210613003519 86 24 0.0 0.0 0.00 0.00 0.00 70 1010.7
20210613003015 86 24 0.0 0.0 0.00 0.00 0.00 70 1010.7
20210613002511 87 24 0.0 0.0 0.00 0.00 0.00 69 1010.8
20210613002006 87 24 0.0 0.0 0.00 0.00 0.00 69 1010.7
20210613001458 87 24 0.0 0.0 0.00 0.00 0.00 67 1010.8
20210613000958 88 24 0.0 0.0 0.00 0.00 0.00 65 1010.6
20210613000454 88 24 0.0 0.0 0.00 0.00 0.00 64 1010.3
20210612235949 88 24 0.0 0.0 0.00 0.00 0.00 63 1010.6
20210612235445 88 24 0.0 0.0 0.00 0.00 0.00 63 1010.5
20210612234939 89 24 0.0 0.0 0.00 0.00 0.00 61 1010.5
20210612234435 89 24 0.0 0.0 0.00 0.00 0.00 61 1010.6
20210612233933 89 24 0.0 0.0 0.00 0.00 0.00 61 1010.5
20210612233411 89 24 0.0 0.0 0.00 0.00 0.00 59 1010.7
20210612232906 90 24 0.0 0.0 0.00 0.00 0.00 60 1010.5
20210612232404 90 24 0.0 0.0 0.00 0.00 0.00 57 1010.7
20210612231903 90 24 0.0 0.0 0.00 0.00 0.00 55 1010.6
20210612231401 90 24 0.0 0.0 0.00 0.00 0.00 57 1010.6
20210612230858 90 24 0.0 0.0 0.00 0.00 0.00 56 1010.5
20210612230354 91 24 0.0 0.0 0.00 0.00 0.00 56 1010.5
20210612225845 91 23 0.0 0.0 0.00 0.00 0.00 53 1010.7
20210612225251 91 23 0.0 0.0 0.00 0.00 0.00 53 1010.7
20210612224746 91 22 0.0 0.0 0.00 0.00 0.00 55 1010.6
20210612224241 92 40 0.0 0.0 0.00 0.00 0.00 50 1010.8
20210612223739 92 40 0.0 1.0 0.00 0.00 0.00 51 1010.5
20210612223234 92 39 1.0 1.0 0.00 0.00 0.00 52 1010.5
20210612222725 93 51 0.0 1.0 0.00 0.00 0.00 48 1010.3
20210612222224 93 64 0.0 0.0 0.00 0.00 0.00 50 1010.3
20210612221721 93 65 0.0 0.0 0.00 0.00 0.00 48 1010.3
20210612221216 94 44 0.0 0.0 0.00 0.00 0.00 49 1010.5
20210612220713 94 51 0.0 0.0 0.00 0.00 0.00 51 1010.5
20210612220210 94 22 0.0 0.0 0.00 0.00 0.00 49 1010.7
20210612215705 95 308 0.0 1.0 0.00 0.00 0.00 46 1010.5
20210612215204 95 296 0.0 0.0 0.00 0.00 0.00 48 1010.6
20210612214700 95 4 1.0 2.0 0.00 0.00 0.00 47 1010.7
20210612214156 95 207 0.0 1.0 0.00 0.00 0.00 50 1010.9
20210612213652 95 207 0.0 0.0 0.00 0.00 0.00 47 1010.8
20210612213147 94 206 0.0 0.0 0.00 0.00 0.00 51 1010.8
20210612212641 93 199 0.0 0.0 0.00 0.00 0.00 54 1010.9
20210612212137 93 199 0.0 0.0 0.00 0.00 0.00 57 1011.0
20210612211634 95 82 0.0 0.0 0.00 0.00 0.00 51 1011.1
20210612211130 96 81 0.0 0.0 0.00 0.00 0.00 51 1010.9
20210612210621 95 21 0.0 0.0 0.00 0.00 0.00 49 1011.1
20210612210111 96 18 1.0 1.0 0.00 0.00 0.00 50 1010.9
20210612205606 96 22 1.0 1.0 0.00 0.00 0.00 51 1011.0
20210612205100 96 61 1.0 1.0 0.00 0.00 0.00 51 1011.2
20210612204600 96 262 2.0 2.0 0.00 0.00 0.00 52 1011.2
20210612204056 95 262 1.0 1.0 0.00 0.00 0.00 51 1011.3
20210612203554 95 307 0.0 0.0 0.00 0.00 0.00 51 1011.2
20210612203053 95 290 3.0 3.0 0.00 0.00 0.00 46 1011.2
20210612202548 95 135 0.0 0.0 0.00 0.00 0.00 56 1011.2
20210612202035 95 132 2.0 2.0 0.00 0.00 0.00 50 1011.4
20210612201529 96 94 1.0 1.0 0.00 0.00 0.00 45 1011.4
20210612201025 94 94 1.0 1.0 0.00 0.00 0.00 46 1011.3
20210612200523 95 266 4.0 5.0 0.00 0.00 0.00 50 1011.5
20210612200015 93 87 0.0 1.0 0.00 0.00 0.00 55 1011.5
20210612195514 92 59 1.0 1.0 0.00 0.00 0.00 56 1011.4
20210612195009 96 58 0.0 1.0 0.00 0.00 0.00 51 1011.6
20210612194505 94 109 0.0 1.0 0.00 0.00 0.00 57 1011.7
20210612194004 95 60 0.0 0.0 0.00 0.00 0.00 49 1011.7
20210612193503 96 12 1.0 1.0 0.00 0.00 0.00 53 1011.8
20210612192954 95 293 0.0 1.0 0.00 0.00 0.00 47 1011.7
20210612192448 95 292 1.0 1.0 0.00 0.00 0.00 48 1011.9
20210612191946 95 171 0.0 1.0 0.00 0.00 0.00 58 1011.9
20210612191443 94 172 0.0 0.0 0.00 0.00 0.00 58 1011.9
20210612190941 95 173 0.0 0.0 0.00 0.00 0.00 48 1011.9
20210612190438 94 153 1.0 1.0 0.00 0.00 0.00 51 1011.9
20210612185935 92 152 0.0 0.0 0.00 0.00 0.00 55 1012.2
20210612185435 93 152 0.0 1.0 0.00 0.00 0.00 54 1012.0
20210612184932 93 152 1.0 1.0 0.00 0.00 0.00 55 1012.1
20210612184428 93 147 1.0 2.0 0.00 0.00 0.00 52 1012.4
20210612183926 93 316 0.0 0.0 0.00 0.00 0.00 57 1012.4
20210612183423 92 177 2.0 2.0 0.00 0.00 0.00 62 1012.5
20210612182917 91 21 1.0 1.0 0.00 0.00 0.00 57 1012.7
20210612182414 92 64 0.0 0.0 0.00 0.00 0.00 54 1012.6
20210612181911 92 63 0.0 0.0 0.00 0.00 0.00 55 1012.7
20210612181405 93 63 0.0 0.0 0.00 0.00 0.00 53 1012.9
20210612180858 93 64 0.0 1.0 0.00 0.00 0.00 53 1013.0
20210612180357 93 207 1.0 2.0 0.00 0.00 0.00 51 1013.0
20210612175853 92 255 0.0 1.0 0.00 0.00 0.00 54 1013.1
20210612175352 92 80 0.0 1.0 0.00 0.00 0.00 52 1012.9
20210612174843 93 287 2.0 2.0 0.00 0.00 0.00 54 1013.2
20210612174342 91 33 0.0 0.0 0.00 0.00 0.00 63 1013.2
20210612173829 93 162 1.0 1.0 0.00 0.00 0.00 59 1013.2
20210612173322 93 87 1.0 1.0 0.00 0.00 0.00 56 1013.1
20210612172818 93 191 0.0 1.0 0.00 0.00 0.00 55 1013.1
20210612172310 92 1 0.0 0.0 0.00 0.00 0.00 54 1013.2
20210612171759 91 2 1.0 1.0 0.00 0.00 0.00 61 1013.2
20210612171256 93 294 0.0 0.0 0.00 0.00 0.00 54 1013.5
20210612170753 92 293 0.0 0.0 0.00 0.00 0.00 65 1013.1
20210612170248 92 294 1.0 1.0 0.00 0.00 0.00 60 1013.2
20210612165748 92 41 1.0 1.0 0.00 0.00 0.00 58 1013.1
20210612165244 91 99 0.0 0.0 0.00 0.00 0.00 61 1013.2
20210612164718 92 1 0.0 0.0 0.00 0.00 0.00 58 1013.2
20210612164203 91 0 2.0 2.0 0.00 0.00 0.00 57 1013.4
20210612163701 92 335 2.0 2.0 0.00 0.00 0.00 58 1013.0
20210612163200 91 38 0.0 1.0 0.00 0.00 0.00 62 1013.1
20210612162655 91 65 0.0 1.0 0.00 0.00 0.00 60 1013.0
20210612162152 91 141 0.0 0.0 0.00 0.00 0.00 62 1013.0
20210612161647 90 140 1.0 1.0 0.00 0.00 0.00 67 1012.9
20210612161132 90 75 0.0 1.0 0.00 0.00 0.00 68 1013.0
20210612160615 90 64 0.0 1.0 0.00 0.00 0.00 67 1012.7
20210612160114 90 30 0.0 1.0 0.00 0.00 0.00 69 1012.9
20210612155605 90 38 0.0 1.0 0.00 0.00 0.00 68 1012.9
20210612155105 89 35 1.0 1.0 0.00 0.00 0.00 72 1012.6
20210612154551 90 34 3.0 3.0 0.00 0.00 0.00 70 1012.9
20210612154047 90 32 1.0 1.0 0.00 0.00 0.00 73 1012.7
20210612153544 88 32 1.0 1.0 0.00 0.00 0.00 74 1012.7
20210612153041 89 130 2.0 2.0 0.00 0.00 0.00 75 1012.8
20210612152539 89 111 0.0 1.0 0.00 0.00 0.00 75 1012.9
20210612152035 88 113 0.0 1.0 0.00 0.00 0.00 76 1012.8
20210612151531 88 82 1.0 1.0 0.00 0.00 0.00 75 1012.9
20210612151024 88 31 0.0 1.0 0.00 0.00 0.00 75 1013.1
20210612150519 87 16 0.0 0.0 0.00 0.00 0.00 78 1012.8
20210612150017 86 57 0.0 0.0 0.00 0.00 0.00 78 1012.9
20210612145515 86 41 1.0 1.0 0.00 0.00 0.00 80 1012.7
20210612145013 87 351 2.0 2.0 0.00 0.00 0.00 79 1012.8
20210612144506 86 20 0.0 0.0 0.00 0.00 0.00 82 1013.0
20210612144002 86 26 0.0 0.0 0.00 0.00 0.00 80 1013.0
20210612143458 86 26 0.0 0.0 0.00 0.00 0.00 80 1013.1
20210612142955 85 26 0.0 0.0 0.00 0.00 0.00 81 1013.1
20210612142448 85 258 0.0 0.0 0.00 0.00 0.00 82 1013.1
20210612141920 84 243 2.0 2.0 0.00 0.00 0.00 83 1013.2
20210612141416 84 71 0.0 1.0 0.00 0.00 0.00 84 1013.3
20210612140910 84 42 0.0 0.0 0.00 0.00 0.00 85 1013.0
20210612140406 83 84 1.0 2.0 0.00 0.00 0.00 84 1013.1
20210612135903 83 328 0.0 1.0 0.00 0.00 0.00 86 1013.1
20210612135401 83 259 0.0 0.0 0.00 0.00 0.00 87 1013.3
20210612134857 82 319 0.0 0.0 0.00 0.00 0.00 89 1013.2
20210612134355 82 319 0.0 0.0 0.00 0.00 0.00 89 1013.2
20210612133851 82 317 2.0 2.0 0.00 0.00 0.00 88 1013.0
20210612133346 82 78 0.0 0.0 0.00 0.00 0.00 89 1013.3
20210612132845 82 344 0.0 0.0 0.00 0.00 0.00 90 1013.3
20210612132340 81 343 0.0 0.0 0.00 0.00 0.00 90 1013.1
20210612131835 81 260 0.0 0.0 0.00 0.00 0.00 91 1013.0
20210612131331 80 260 1.0 1.0 0.00 0.00 0.00 91 1013.0
20210612130817 80 260 3.0 3.0 0.00 0.00 0.00 92 1013.2
20210612130313 80 32 0.0 0.0 0.00 0.00 0.00 93 1012.8
20210612125809 79 80 2.0 2.0 0.00 0.00 0.00 93 1012.7
20210612125257 79 6 0.0 0.0 0.00 0.00 0.00 94 1012.8
20210612124753 78 98 0.0 1.0 0.00 0.00 0.00 96 1012.6
20210612124253 77 98 1.0 1.0 0.00 0.00 0.00 98 1012.5
20210612123749 77 99 0.0 0.0 0.00 0.00 0.00 99 1012.5
20210612123242 76 99 1.0 1.0 0.00 0.00 0.00 99 1012.5
20210612122741 76 99 1.0 2.0 0.00 0.00 0.00 99 1012.6
20210612122240 75 352 0.0 0.0 0.00 0.00 0.00 99 1012.7
20210612121734 75 352 0.0 0.0 0.00 0.00 0.00 99 1012.9
20210612121229 75 352 0.0 0.0 0.00 0.00 0.00 99 1012.5
20210612120726 74 352 0.0 0.0 0.00 0.00 0.00 99 1012.5
20210612120225 74 352 0.0 0.0 0.00 0.00 0.00 99 1012.9
20210612115721 74 352 0.0 0.0 0.00 0.00 0.00 99 1012.7
20210612115216 74 350 0.0 0.0 0.00 0.00 0.00 99 1012.6
20210612114711 73 307 1.0 1.0 0.00 0.00 0.00 99 1012.7
20210612114207 73 307 1.0 2.0 0.00 0.00 0.00 99 1012.6
20210612113705 73 249 3.0 3.0 0.00 0.00 0.00 99 1012.3
20210612113203 73 266 3.0 3.0 0.00 0.00 0.00 99 1012.3
20210612112700 72 318 1.0 1.0 0.00 0.00 0.00 99 1012.0
20210612112156 72 318 0.0 0.0 0.00 0.00 0.00 99 1012.0
20210612111649 72 318 0.0 0.0 0.00 0.00 0.00 99 1011.9
20210612111144 72 318 0.0 0.0 0.00 0.00 0.00 99 1012.1
20210612110639 72 318 0.0 0.0 0.00 0.00 0.00 99 1011.7
20210612110135 72 318 0.0 0.0 0.00 0.00 0.00 99 1011.9
20210612105631 72 318 0.0 0.0 0.00 0.00 0.00 99 1011.6
20210612105126 72 318 0.0 0.0 0.00 0.00 0.00 99 1011.8
20210612104622 72 318 0.0 0.0 0.00 0.00 0.00 99 1012.0
20210612104117 72 318 0.0 0.0 0.00 0.00 0.00 99 1011.7
20210612103609 72 318 0.0 0.0 0.00 0.00 0.00 99 1011.8
20210612103106 71 318 0.0 0.0 0.00 0.00 0.00 99 1011.7
20210612102600 72 318 0.0 0.0 0.00 0.00 0.00 99 1011.6
20210612102055 72 318 0.0 0.0 0.00 0.00 0.00 99 1011.5
20210612101553 72 318 0.0 0.0 0.00 0.00 0.00 99 1011.6
20210612101045 72 318 0.0 0.0 0.00 0.00 0.00 99 1011.5
20210612100541 72 318 0.0 0.0 0.00 0.00 0.00 99 1011.8
20210612100038 72 318 0.0 0.0 0.00 0.00 0.00 99 1011.4
20210612095534 72 318 0.0 0.0 0.00 0.00 0.00 99 1011.4
20210612095030 72 318 0.0 0.0 0.00 0.00 0.00 99 1011.2
20210612094528 72 318 0.0 0.0 0.00 0.00 0.00 99 1011.5
20210612094023 72 318 0.0 0.0 0.00 0.00 0.00 99 1011.4
20210612093516 72 318 0.0 0.0 0.00 0.00 0.00 99 1011.4
20210612093014 73 318 0.0 0.0 0.00 0.00 0.00 99 1011.2
20210612092512 72 318 0.0 0.0 0.00 0.00 0.00 99 1011.2
20210612092010 72 318 0.0 0.0 0.00 0.00 0.00 99 1011.4
20210612091507 72 318 0.0 0.0 0.00 0.00 0.00 99 1011.5
20210612091003 72 318 0.0 0.0 0.00 0.00 0.00 99 1011.5
20210612090459 73 318 0.0 0.0 0.00 0.00 0.00 99 1011.3
20210612085952 73 318 0.0 0.0 0.00 0.00 0.00 99 1011.4
20210612085446 73 318 0.0 0.0 0.00 0.00 0.00 99 1011.1
20210612084942 73 318 0.0 0.0 0.00 0.00 0.00 99 1011.4